Satellite: NOAA-14
Catalog number: 23455
Epoch time: 09344.39378575
Element set: 858
Inclination: 098.8960 deg
RA of node: 061.3252 deg
Eccentricity: 0.0010085
Arg of perigee: 054.6870 deg
Mean anomaly: 305.5259 deg
Mean motion: 14.13775211 rev/day
Decay rate: 5.0e-07 rev/day^2
Epoch rev: 77082
Checksum: 316
Satellite: NOAA-15
Catalog number: 25338
Epoch time: 09349.44666129
Element set: 961
Inclination: 098.6024 deg
RA of node: 334.8444 deg
Eccentricity: 0.0009573
Arg of perigee: 249.5173 deg
Mean anomaly: 110.4595 deg
Mean motion: 14.24797098 rev/day
Decay rate: 2.9e-07 rev/day^2
Epoch rev: 60258
Checksum: 339
Satellite: RESURS
Catalog number: 25394
Epoch time: 09344.64226321
Element set: 378
Inclination: 098.3202 deg
RA of node: 007.8555 deg
Eccentricity: 0.0002372
Arg of perigee: 062.3524 deg
Mean anomaly: 297.7896 deg
Mean motion: 14.24191292 rev/day
Decay rate: -2.3e-07 rev/day^2
Epoch rev: 59351
Checksum: 299
Satellite: FENGYUN1
Catalog number: 25730
Epoch time: 09344.16301307
Element set: 920
Inclination: 098.7728 deg
RA of node: 309.2015 deg
Eccentricity: 0.0023326
Arg of perigee: 073.9289 deg
Mean anomaly: 286.4436 deg
Mean motion: 14.08124110 rev/day
Decay rate: 1.139e-05 rev/day^2
Epoch rev: 54508
Checksum: 284
Satellite: OKEAN-0
Catalog number: 25860
Epoch time: 09344.51506740
Element set: 858
Inclination: 097.8088 deg
RA of node: 318.9047 deg
Eccentricity: 0.0001117
Arg of perigee: 048.0779 deg
Mean anomaly: 312.0537 deg
Mean motion: 14.73601507 rev/day
Decay rate: 6.0e-08 rev/day^2
Epoch rev: 55911
Checksum: 301
Satellite: NOAA-16
Catalog number: 26536
Epoch time: 09349.48555968
Element set: 965
Inclination: 099.1786 deg
RA of node: 357.5612 deg
Eccentricity: 0.0011208
Arg of perigee: 129.4119 deg
Mean anomaly: 230.7550 deg
Mean motion: 14.12541947 rev/day
Decay rate: 9.1e-07 rev/day^2
Epoch rev: 47589
Checksum: 346
Satellite: NOAA-17
Catalog number: 27453
Epoch time: 09349.48265641
Element set: 722
Inclination: 098.4619 deg
RA of node: 042.0782 deg
Eccentricity: 0.0011036
Arg of perigee: 319.5255 deg
Mean anomaly: 040.5056 deg
Mean motion: 14.24113179 rev/day
Decay rate: -1.0e-08 rev/day^2
Epoch rev: 38855
Checksum: 298
Satellite: NOAA-18
Catalog number: 28654
Epoch time: 09344.50909731
Element set: 144
Inclination: 098.9283 deg
RA of node: 286.5396 deg
Eccentricity: 0.0013742
Arg of perigee: 223.3081 deg
Mean anomaly: 136.7008 deg
Mean motion: 14.11308493 rev/day
Decay rate: -1.29e-06 rev/day^2
Epoch rev: 23482
Checksum: 312
Satellite: NOAA-19
Catalog number: 33591
Epoch time: 09344.52713352
Element set: 352
Inclination: 098.7685 deg
RA of node: 285.8654 deg
Eccentricity: 0.0014969
Arg of perigee: 103.1176 deg
Mean anomaly: 257.1623 deg
Mean motion: 14.11009166 rev/day
Decay rate: 2.39e-06 rev/day^2
Epoch rev: 4330
Checksum: 307
/EX
SB KEPS @ AMSAT $ORB09344.M
Orbital Elements 09344.MISC
HR AMSAT ORBITAL ELEMENTS FOR MANNED AND MISCELLANEOUS SATELLITES
FROM WA5QGD FORT WORTH,TX December 10, 2009
Send Subscribe/unsubscribe to KEPS at http://www.amsat.org/mailman/listinfo/keps
BID: ORB09344.M
TO ALL RADIO AMATEURS BT
Satellite: HUBBLE
Catalog number: 20580
Epoch time: 09343.60367032
Element set: 487
Inclination: 028.4710 deg
RA of node: 037.3903 deg
Eccentricity: 0.0003225
Arg of perigee: 346.8092 deg
Mean anomaly: 013.2428 deg
Mean motion: 15.00863663 rev/day
Decay rate: 3.02e-06 rev/day^2
Epoch rev: 87623
Checksum: 269
Satellite: ISS
Catalog number: 25544
Epoch time: 09344.87415091
Element set: 148
Inclination: 051.6444 deg
RA of node: 118.7669 deg
Eccentricity: 0.0008007
Arg of perigee: 067.1016 deg
Mean anomaly: 071.3090 deg
Mean motion: 15.76439945 rev/day
Decay rate: 9.658e-05 rev/day^2
Epoch rev: 63379
Checksum: 323
Satellite: CO-58
Catalog number: 28895
Epoch time: 09342.23312638
Element set: 460
Inclination: 098.0372 deg
RA of node: 227.7430 deg
Eccentricity: 0.0018247
Arg of perigee: 160.6581 deg
Mean anomaly: 199.5292 deg
Mean motion: 14.59821754 rev/day
Decay rate: -4.2e-07 rev/day^2
Epoch rev: 21912
Checksum: 320
Satellite: FALCON
Catalog number: 30776
Epoch time: 09344.75982071
Element set: 719
Inclination: 035.4325 deg
RA of node: 108.0132 deg
Eccentricity: 0.0002091
Arg of perigee: 349.0918 deg
Mean anomaly: 010.9752 deg
Mean motion: 15.03389258 rev/day
Decay rate: 3.50e-06 rev/day^2
Epoch rev: 15168
Checksum: 288
Satellite: MAST
Catalog number: 31126
Epoch time: 09344.12618289
Element set: 751
Inclination: 097.9661 deg
RA of node: 030.6500 deg
Eccentricity: 0.0095737
Arg of perigee: 093.4770 deg
Mean anomaly: 267.7397 deg
Mean motion: 14.53537334 rev/day
Decay rate: 6.8e-07 rev/day^2
Epoch rev: 14059
Checksum: 318
Satellite: CAPE1
Catalog number: 31130
Epoch time: 09344.13146678
Element set: 763
Inclination: 097.9679 deg
RA of node: 028.4532 deg
Eccentricity: 0.0103898
Arg of perigee: 100.3387 deg
Mean anomaly: 260.9541 deg
Mean motion: 14.52113203 rev/day
Decay rate: 2.2e-07 rev/day^2
Epoch rev: 14022
Checksum: 275
Satellite: COMPASS
Catalog number: 32787
Epoch time: 09344.22835410
Element set: 539
Inclination: 097.9219 deg
RA of node: 046.3632 deg
Eccentricity: 0.0015771
Arg of perigee: 176.4660 deg
Mean anomaly: 183.6663 deg
Mean motion: 14.81712810 rev/day
Decay rate: 5.62e-06 rev/day^2
Epoch rev: 8751
Checksum: 310
Satellite: AAUSAT2
Catalog number: 32788
Epoch time: 09344.18132879
Element set: 532
Inclination: 097.9218 deg
RA of node: 046.4052 deg
Eccentricity: 0.0015489
Arg of perigee: 178.1106 deg
Mean anomaly: 182.0166 deg
Mean motion: 14.81840681 rev/day
Decay rate: 1.16e-06 rev/day^2
Epoch rev: 8751
Checksum: 310
Satellite: DO-64
Catalog number: 32789
Epoch time: 09344.74181159
Element set: 549
Inclination: 097.9275 deg
RA of node: 047.2490 deg
Eccentricity: 0.0015699
Arg of perigee: 174.4347 deg
Mean anomaly: 185.7043 deg
Mean motion: 14.81882949 rev/day
Decay rate: 4.11e-06 rev/day^2
Epoch rev: 8759
Checksum: 365
Satellite: CO-66
Catalog number: 32791
Epoch time: 09344.22474173
Element set: 529
Inclination: 097.9234 deg
RA of node: 046.3901 deg
Eccentricity: 0.0016040
Arg of perigee: 174.8918 deg
Mean anomaly: 185.2454 deg
Mean motion: 14.81525487 rev/day
Decay rate: 3.92e-06 rev/day^2
Epoch rev: 8747
Checksum: 330
Satellite: RS-30
Catalog number: 32953
Epoch time: 09343.57657706
Element set: 0473
Inclination: 082.4995 deg
RA of node: 147.5765 deg
Eccentricity: 0.0019165
Arg of perigee: 154.6018 deg
Mean anomaly: 205.6009 deg
Mean motion: 12.43003179 rev/day
Decay rate: 1.0e-07 rev/day^2
Epoch rev: 07018
Checksum: 300
Satellite: TACSAT-3
Catalog number: 35001
Epoch time: 09344.23473825
Element set: 164
Inclination: 040.4567 deg
RA of node: 267.3116 deg
Eccentricity: 0.0022732
Arg of perigee: 028.4750 deg
Mean anomaly: 331.7302 deg
Mean motion: 15.39748427 rev/day
Decay rate: 2.929e-05 rev/day^2
Epoch rev: 3148
Checksum: 287
Satellite: PHARMSAT
Catalog number: 35002
Epoch time: 09344.91298205
Element set: 157
Inclination: 040.4685 deg
RA of node: 262.0795 deg
Eccentricity: 0.0025788
Arg of perigee: 038.4193 deg
Mean anomaly: 321.8463 deg
Mean motion: 15.40451420 rev/day
Decay rate: 2.227e-05 rev/day^2
Epoch rev: 3159
Checksum: 287
Satellite: HAWKSAT1
Catalog number: 35003
Epoch time: 09343.91187513
Element set: 163
Inclination: 040.4637 deg
RA of node: 266.6307 deg
Eccentricity: 0.0025432
Arg of perigee: 035.0542 deg
Mean anomaly: 325.1939 deg
Mean motion: 15.41650077 rev/day
Decay rate: 4.957e-05 rev/day^2
Epoch rev: 3146
Checksum: 280
Satellite: CP6
Catalog number: 35004
Epoch time: 09343.90393848
Element set: 157
Inclination: 040.4649 deg
RA of node: 266.5770 deg
Eccentricity: 0.0024814
Arg of perigee: 035.6723 deg
Mean anomaly: 324.5746 deg
Mean motion: 15.41851812 rev/day
Decay rate: 5.535e-05 rev/day^2
Epoch rev: 3145
Checksum: 305
Satellite: AEROCUB3
Catalog number: 35005
Epoch time: 09344.90273128
Element set: 162
Inclination: 040.4756 deg
RA of node: 261.1790 deg
Eccentricity: 0.0025002
Arg of perigee: 039.5380 deg
Mean anomaly: 320.7270 deg
Mean motion: 15.41661825 rev/day
Decay rate: 7.625e-05 rev/day^2
Epoch rev: 3160
Checksum: 264
Satellite: DRAGNSAT
Catalog number: 35690
Epoch time: 09344.76570910
Element set: 135
Inclination: 051.6363 deg
RA of node: 109.8599 deg
Eccentricity: 0.0003869
Arg of perigee: 243.9995 deg
Mean anomaly: 116.0617 deg
Mean motion: 15.89459764 rev/day
Decay rate: 4.5171e-04 rev/day^2
Epoch rev: 2112
Checksum: 330
Satellite: POLLUX
Catalog number: 35693
Epoch time: 09344.77090188
Element set: 142
Inclination: 051.6371 deg
RA of node: 110.6637 deg
Eccentricity: 0.0002793
Arg of perigee: 189.4886 deg
Mean anomaly: 170.6010 deg
Mean motion: 15.88055698 rev/day
Decay rate: 4.0043e-04 rev/day^2
Epoch rev: 2108
Checksum: 304
Satellite: CASTOR
Catalog number: 35694
Epoch time: 09344.78407903
Element set: 126
Inclination: 051.6392 deg
RA of node: 112.3061 deg
Eccentricity: 0.0003740
Arg of perigee: 172.6969 deg
Mean anomaly: 187.4067 deg
Mean motion: 15.83925008 rev/day
Decay rate: 1.6740e-04 rev/day^2
Epoch rev: 2106
Checksum: 296
Satellite: METEOR-M
Catalog number: 35865
Epoch time: 09344.32698875
Element set: 74
Inclination: 098.7872 deg
RA of node: 034.2180 deg
Eccentricity: 0.0002269
Arg of perigee: 169.6718 deg
Mean anomaly: 190.4452 deg
Mean motion: 14.21828127 rev/day
Decay rate: 1.76e-06 rev/day^2
Epoch rev: 1188
Checksum: 325
/EX
More information about the Keps
mailing list